Location: Hopkins Observatory
(42.6965°N, 73.1843°W)
Time: 22:14:30
(UTC-04:00)

UOSAT-12 - Visible Passes

Search period start: 27 August 2015 00:00
Search period end: 06 September 2015 00:00
Orbit: 602 x 653 km, 64.6° (Epoch: 27 August)

Date Brightness Start Highest point End Pass type
(mag) Time Alt. Az. Time Alt. Az. Time Alt. Az.
27 Aug 7.9 03:35:17 42° SE 03:35:33 42° ESE 03:39:59 10° NE visible
27 Aug 8.4 05:12:37 14° W 05:15:51 28° NW 05:19:51 10° NNE visible
28 Aug 7.0 03:55:06 74° SW 03:55:31 90° WNW 04:00:14 10° NE visible
28 Aug 9.1 05:33:20 10° WNW 05:36:21 16° NW 05:39:16 10° N visible
29 Aug 9.4 02:37:31 19° E 02:37:31 19° E 02:39:32 10° ENE visible
29 Aug 7.7 04:14:50 40° W 04:15:40 44° NW 04:20:10 10° NNE visible
30 Aug 8.6 02:57:14 34° ENE 02:57:14 34° ENE 03:00:10 10° NE visible
30 Aug 8.6 04:34:32 21° WNW 04:36:02 24° NW 04:39:50 10° NNE visible
31 Aug 8.0 03:16:53 48° NNE 03:16:53 48° NNE 03:20:19 10° NNE visible
31 Aug 9.3 04:54:12 11° WNW 04:56:35 15° NW 04:59:08 10° N visible
01 Sep 10.0 01:59:12 13° ENE 01:59:12 13° ENE 01:59:49 10° NE visible
01 Sep 8.2 03:36:30 36° NNW 03:36:30 36° NNW 03:40:12 10° NNE visible
02 Sep 9.5 02:18:47 20° NE 02:18:47 20° NE 02:20:19 10° NE visible
02 Sep 8.9 03:56:06 21° NW 03:56:14 21° NW 03:59:48 10° N visible
03 Sep 9.2 02:38:21 25° NNE 02:38:21 25° NNE 02:40:25 10° NNE visible
03 Sep 9.4 04:15:39 12° NW 04:16:49 13° NNW 04:18:57 10° N visible
04 Sep 9.1 02:57:52 24° N 02:57:52 24° N 03:00:13 10° NNE visible
05 Sep 10.2 01:40:05 12° NE 01:40:05 12° NE 01:40:26 10° NE visible
05 Sep 9.4 03:17:23 18° NNW 03:17:23 18° NNW 03:19:44 10° N visible
